STARLINK-1040

Last updated on Dec. 12, 2019, 12:02 a.m. UTC

1 44745U 19074AJ  19345.58335648  .00193841  00000-0  13696-2 0  9992
2 44745  53.0062  20.8198 0001583  40.6982 359.0621 15.72924564  4742

Satellite is not in orbit.